Find Starlink 11711

NORAD ID: 64378 Int'l Des: 2025-127 Owner: SPXS Country: US Constellation: starlink operational
LEOCIRCULAR

当前视图

正在加载3D地球...

关于 Starlink 11711

正在加载描述...

即将过境

Passes for default location (London). Set your location on the main map for personalized predictions.

高度历史

Loading altitude history...

两行轨道根数

1 64378U 25127J 26146.57029886 .00274035 00000-0 20616-2 0 9997
2 64378 43.0004 334.8586 0002026 261.7325 98.3313 15.70930646 55866
Epoch: May 26, 2026 • Age: 9 hours

当前状态

高度 356.9 km
速度 7.70 km/s
星下点 28.13°N, 137.35°E
发射日期 Jun 13, 2025
运行时间 0.9 years
类型 internet

技术详情

分类 Payload
质量 960.00 kg
干质量 910.00 kg
总质量 960.00 kg
长度 0.30 m
直径 4.10 m
跨度 29.00 m
形状 Box + pan
制造商 SPXS
平台类型 Starlink V2MD
阶段状态 In Orbit
所有者/国家 SPXS/US

Most Searched